Overview Statistics Trail Chart Weather Telemetry Raw packets
 

This is the latest recevied weather packets stored in our database for station/object HP1MRA-15. If no packets are shown the sender has not sent any weather packets the latest 10 day(s).

<< 61 62 63 64 65 66 67 >>
Time Temp. Humidity Pressure Rain* Wind** Luminosity Snow
1788278219 36.11° C 76% 1005.3 hPa 0 mm - - -
1788277919 36.11° C 76% 1005.3 hPa 0 mm - - -
1788277618 36.11° C 76% 1005.2 hPa 0 mm - - -
1788277319 35.56° C 74% 1005.3 hPa 0 mm - - -
1788277018 35° C 77% 1005.3 hPa 0 mm - - -
1788276719 35° C 77% 1005.4 hPa 0 mm - - -
1788276717 35° C 77% 1005.5 hPa 0 mm - - -
1788276419 35° C 77% 1005.5 hPa 0.25 mm - - -
1788276118 33.89° C 78% 1005.5 hPa 0.25 mm - - -
1788275819 - - 1005.5 hPa 0.25 mm - - -
1788275817 33.89° C 77% 1005.5 hPa 0.25 mm - - -
1788275519 - - 1005.4 hPa 0.25 mm - - -
1788275218 33.33° C 78% 1005.4 hPa 0.25 mm - - -
1788274919 32.78° C 79% 1005.4 hPa 0.25 mm - - -
1788274917 32.78° C 79% 1005.4 hPa 0.25 mm - - -
1788274619 32.78° C 79% 1005.4 hPa 0.25 mm - - -
1788274318 32.22° C 79% 1005.4 hPa 0.25 mm - - -
1788274019 31.67° C 80% 1005.3 hPa 0.25 mm - - -
1788274017 31.67° C 80% 1005.4 hPa 0.25 mm - - -
1788273719 31.67° C 80% 1005.2 hPa 0.25 mm - - -
1788273418 31.11° C 80% 1005.3 hPa 0.25 mm - - -
1788273119 30.56° C 80% 1005.3 hPa 0.25 mm - - -
1788273117 30.56° C 80% 1005.3 hPa 0.25 mm - - -
1788272818 30° C 80% 1005.2 hPa 0 mm - - -
1788272518 30° C 80% 1005.1 hPa 0 mm - - -

* Rain latest hour (hover to see other rain measurements)
** Current wind speed in m/s (hover to see current wind gust speed)